Location: Carrer del Canonge
(41.4901°N, 2.2931°E)
Time: 05:04:03
(UTC+00:00)

CSL-04 Rocket - Pass Details

Date: 18 September 2020
Orbit: 806 x 860 km, 98.9° (Epoch: 25 October)

Event Time Altitude Azimuth Distance (km) Brightness Sun altitude
Rises 18:24:33 0° 152° (SSE) 3,348 6.5 -6.5°
Reaches altitude 10° 18:26:54 10° 149° (SSE) 2,427 5.7 -6.9°
Maximum altitude 18:32:10 58° 71° (ENE) 978 3.8 -7.9°
Drops below altitude 10° 18:37:32 10° 354° (N) 2,478 6.4 -8.9°
Sets 18:39:57 0° 351° (N) 3,424 7.1 -9.3°
